Weather Roundup
Issued by NWS Springfield, MO

Home | Current Version | Previous Version | Text Only | Print | Product List | Glossary On
Versions: 1 2 3 4 5 6 7 8 9 10 11 12 13 14 15 16 17 18 19 20 21 22 23 24 25 26 27 28 29 30 31 32 33 34 35 36 37 38 39 40 41 42 43 44 45 46 47 48 49 50
000
NZUS99 KSGF 260059
HRRSGF

HOURLY WEATHER
NATIONAL WEATHER SERVICE SPRINGFIELD MO
800 PM CDT MON MAY 25 2015

......SGF CWA......

CITY           SKY/WX    TMP DP  RH WIND       PRES   REMARKS
SPRINGFIELD    CLOUDY    75  63  66 S15       29.88R
JOPLIN         CLOUDY    75  66  73 SE9       29.84F
WEST PLAINS    MOCLDY    74  66  76 SE8       29.98R
ROLLA          PTCLDY    74  65  73 S10       29.91R
OSAGE BEACH    MOCLDY    75  63  64 SE7       29.90R
BRANSON        CLOUDY    73  64  73 SE13      29.93R

......SURROUNDING SGF CWA......

CITY           SKY/WX    TMP DP  RH WIND       PRES   REMARKS
CHANUTE        CLOUDY    73  68  84 SE6       29.81R
PARSONS        CLOUDY    75  68  78 S8        29.82S
COFFEYVILLE    LGT RAIN  67  59  75 S23G35    29.81F
EMPORIA        CLOUDY    73  66  78 S9        29.80R
SILOAM SPRINGS CLOUDY    66  59  77 NE7       29.88R THUNDER
HARRISON AR    LGT RAIN  71  66  84 SE9       29.92S
NEAR YELLVILLE CLOUDY    75  66  73 SE8       29.91S THUNDER

......KANSAS AND MISSOURI......

CITY           SKY/WX    TMP DP  RH WIND       PRES   REMARKS
KANSAS CTY INT CLOUDY    74  65  73 S7        29.83R
DOWNTOWN KC    CLOUDY    78  64  61 S9        29.81R
COLUMBIA       MOCLDY    76  65  68 S9        29.90R
SEDALIA        CLOUDY    77  66  68 S8        29.88R
ST JOSEPH      CLOUDY    67  56  67 N13       29.86R
ST LOUIS       MOCLDY    80  66  62 S18G26    29.93R
SPIRIT OF STL  MOCLDY    78  66  66 SE6       29.91R
KIRKSVILLE     PTCLDY    73  68  84 S6        29.87F
WICHITA        TSTM      62  58  86 SW15      29.86R FOG
TOPEKA         MOCLDY    76  65  68 S6        29.81R
OLATHE         CLOUDY    74  66  76 S5        29.82S

......TENNESSEE......

CITY           SKY/WX    TMP DP  RH WIND       PRES   REMARKS
MEMPHIS        MOCLDY    80  70  71 SE9       30.01R
NASHVILLE      MOCLDY    70  67  90 S6        30.11S

......ARKANSAS.......

CITY           SKY/WX    TMP DP  RH WIND       PRES   REMARKS
FAYETTEVILLE   TSTM      66  62  87 SE23G39   29.89R FOG
FT SMITH       TSTM      66  63  90 W15G25    29.88R
LITTLE ROCK    CLOUDY    74  67  78 E7        29.90F

......OKLAHOMA.......

CITY           SKY/WX    TMP DP  RH WIND       PRES   REMARKS
TULSA          CLOUDY    64  62  93 NE10      29.77F
PONCA CITY     CLOUDY    68  56  65 NW3       29.82R
MCALESTER      CLOUDY    62  60  93 E8        29.79R
OKLAHOMA CITY  CLOUDY    62  58  86 SE3       29.80R

......IOWA............

CITY           SKY/WX    TMP DP  RH WIND       PRES   REMARKS
DES MOINES     CLOUDY    75  64  68 S9        29.80R
QUAD CITIES    CLEAR     75  61  61 S6        29.88R

......ILLINOIS........

CITY           SKY/WX    TMP DP  RH WIND       PRES   REMARKS
QUINCY         CLEAR     76  65  68 SE5       29.89R
CHICAGO        PTCLDY    76  60  57 S10       29.90F



USA.gov is the U.S. government's official web portal to all federal, state and local government web resources and services.